Regional Weather Roundup
Issued by NWS Green Bay, WI

Home | Current Version | Previous Version | Text Only | Print | Product List | Glossary On
Versions: 1 2 3 4 5 6 7 8 9 10 11 12 13 14 15 16 17 18 19 20 21 22 23 24 25 26 27 28 29 30 31 32 33 34 35 36 37 38 39 40 41 42 43 44 45 46 47 48 49 50
278
ASUS43 KGRB 250711
RWRGRB

NORTH-CENTRAL AND NORTHEAST WISCONSIN REGIONAL WEATHER ROUNDUP
NATIONAL WEATHER SERVICE GREEN BAY WI
200 AM CDT SAT MAY 25 2019

WIZ005-009-010>012-018-019-250800-
NORTH CENTRAL WISCONSIN

CITY           SKY/WX    TMP DP  RH WIND       PRES   REMARKS
IRONWOOD       CLOUDY    57  55  93 S12G22    29.73F
MANITOWISH WTR FOG       53  53 100 S8        29.77F VSB 3/4
ARBOR VITAE    FOG       57  54  91 S5        29.77F VSB 3/4
EAGLE RIVER    FOG       52  52 100 S5        29.77F VSB 3/4
LAND O LAKES   NOT AVBL
RHINELANDER    FOG       56  52  86 S6        29.79F VSB 1/2
PHILLIPS       CLOUDY    56  56 100 S10       29.76F FOG
ANTIGO         FOG       53  53 100 S3        29.81F VSB 1/2
TOMAHAWK       CLOUDY    53  52  97 CALM      29.78F FOG
MERRILL        CLOUDY    55  55 100 SE3       29.79F FOG
$$

WIZ013-073-250800-
NORTHEAST WISCONSIN

CITY           SKY/WX    TMP DP  RH WIND       PRES   REMARKS
IRON MOUNTAIN  CLOUDY    51  50  96 SE6       29.79F FOG
MARINETTE      CLOUDY    51  50  96 NE3       29.82F
OCONTO         CLOUDY    55  55  98 SE5       29.81S
$$

WIZ017-030-035>037-045-250800-
CENTRAL WISCONSIN

CITY           SKY/WX    TMP DP  RH WIND       PRES   REMARKS
MEDFORD        FOG       54  54  99 SE3       29.77F VSB 3/4
WAUSAU         CLOUDY    55  53  93 CALM      29.78F
MOSINEE        CLOUDY    54  54 100 NE3       29.80F FOG
MARSHFIELD     FOG       56  55  97 E3        29.76F VSB 1/4
WISC RAPIDS    FAIR      56  55  97 CALM      29.79S FOG
STEVENS POINT  CLOUDY    53  53 100 CALM      29.79F FOG
WAUPACA        FAIR      57  56  95 CALM      29.79F FOG
SHAWANO        CLOUDY    59  55  87 CALM      29.80F FOG
CLINTONVILLE   CLOUDY    56  55  94 CALM      29.81S FOG
WAUTOMA        LGT RAIN  57  55  94 N7        29.79F FOG
$$

WIZ038-039-048-051-250800-
FOX VALLEY

CITY           SKY/WX    TMP DP  RH WIND       PRES   REMARKS
NWS GREEN BAY  CLOUDY    59  57  93 SE8       29.82F
APPLETON       CLOUDY    57  55  94 SE7       29.79F FOG
OSHKOSH        LGT RAIN  62  60  93 VRB3      29.79F FOG
FOND DU LAC    TSTM      64  61  90 S8        29.79F
$$

WIZ022-050-052-250800-
EAST CENTRAL WISCONSIN

CITY           SKY/WX    TMP DP  RH WIND       PRES   REMARKS
EPHRAIM        CLOUDY    51  51  97 S7G17     29.81F
WASHINGTON ISL TSTM      52  50  95 S6        29.82F
STURGEON BAY   CLOUDY    59  57  93 S14       29.81F
MANITOWOC      LGT RAIN  55  55 100 VRB3      29.84R FOG
SHEBOYGAN      LGT RAIN  56  54  93 SW14      29.85R FOG
$$

LMZ563-521-522-541>543-250800-
LAKESHORE

STATION/POSITION TIME  TEMP    WIND        PRES    VSBY  WAVE
                       AIR SEA DIR/SP/G                  HT/PER
                 (UTC) (F)     (DEG/KT/KT) (MB)    (MI)  (FT/S)
SHEBOYGAN LKSHOR 0700   54     220/  8/  9 1009.7F
KEWAUNEE LKSHORE 0648   56     180/  9/ 12 1009.6F
NORTHPORT PIER   0640   46     110/  3/  7 1009.1F
N MID LAKE BUOY  0650   44 37  130/ 10/ 12 1010.0F         0
SISTER BAY LKSHO 0613   51     140/  7/ 10   N/A
CHAMBERS ISLAND  0640   48      CALM  /  7 1009.5F
MENOMINEE LKSHOR 0648   50 54   10/  6/  7 1009.2F
$$




USA.gov is the U.S. government's official web portal to all federal, state and local government web resources and services.